Regional Weather Roundup
Issued by NWS

Home | Current Version | Previous Version | Graphics & Text | Print | Product List | Glossary On
Versions: 1 2 3 4 5 6 7 8 9 10 11 12 13 14 15 16 17 18 19 20 21 22 23 24 25 26 27 28 29 30 31 32 33 34 35 36 37 38 39 40 41 42 43 44 45 46 47 48 49 50
000
ASUS44 KMEG 150210
RWRTN
TENNESSEE HOURLY STATE WEATHER ROUNDUP
NATIONAL WEATHER SERVICE MEMPHIS TN
900 PM CDT SUN SEP 14 2014

TNZ002-004-019-021-049-052-054-088>092-150300-
WEST TENNESSEE

CITY           SKY/WX    TMP DP  RH WIND       PRES   REMARKS
MEMPHIS INTL   PTCLDY    71  57  61 NE5       30.17R
NWS MEMPHIS      N/A     64 N/A N/A MISG        N/A
JACKSON        CLEAR     62  58  86 CALM      30.18R
DYERSBURG      CLEAR     63  46  55 N3        30.20R
UNION CITY     CLEAR     63  54  72 CALM      30.18S
PARIS          CLEAR     55  52  88 NE3       30.20S
HUNTINGDON     CLEAR     58  56  93 CALM      30.19R
LEXINGTON      CLEAR     61  57  88 N5        30.18R
SAVANNAH       CLEAR     63  63 100 CALM      30.18R
$$

TNZ008-025-027-028-033-062-065-066-150300-
NORTH MIDDLE TENNESSEE

CITY           SKY/WX    TMP DP  RH WIND       PRES   REMARKS
NASHVILLE      CLEAR     67  55  65 CALM      30.19R
DICKSON        CLEAR     61  57  88 CALM      30.19R
PORTLAND       CLEAR     59  55  88 CALM      30.19R
CLARKSVILLE    CLEAR     62  54  74 N5        30.19R
LEBANON        CLEAR     62  58  87 CALM      30.18R
SMYRNA         CLEAR     63  58  83 CALM      30.20R
MURFREESBORO   CLEAR     66  58  75 CALM      30.18R
COOKEVILLE     CLEAR     59  57  94 CALM      30.19S
LIVINGSTON     CLEAR     60  58  93 CALM      30.21
GALLATIN       CLEAR     64  58  81 CALM      30.19S
CROSSVILLE     CLEAR     65  61  87 CALM      30.23R
$$

TNZ061-075-076-078-094-096-097-150300-
SOUTH MIDDLE TENNESSEE

CITY           SKY/WX    TMP DP  RH WIND       PRES   REMARKS
LEWISBURG      CLEAR     61  58  90 CALM      30.18R
FAYETTEVILLE     N/A     66  57  72 NE6       30.19R
TULLAHOMA      CLEAR     64  59  82 CALM      30.21R
WINCHESTER     CLEAR     64  61  88 CALM      30.19S
MCMINNVILLE    CLEAR     64  64 100 CALM      30.20R
COLUMBIA       CLEAR     64  63  94 CALM      30.18R
SHELBYVILLE    CLEAR     63  61  94 CALM      30.20R
$$

TNZ017-018-042-046-047-150300-
NORTHEAST TENNESSEE

CITY           SKY/WX    TMP DP  RH WIND       PRES   REMARKS
TRI CITIES     MOCLDY    65  62  90 NE3       30.23R
ELIZABETHTON   CLOUDY    64  63  94 NE5       30.23R
$$

TNZ012-013-036-069-073-074-150300-
CENTRAL EAST TENNESSEE

CITY           SKY/WX    TMP DP  RH WIND       PRES   REMARKS
KNOXVILLE      PTCLDY    70  65  84 NE5       30.18R
OAK RIDGE      CLEAR     69  65  86 CALM      30.20R
GATLINBURG     CLEAR     66  64  94 CALM      30.19R
MORRISTOWN     CLEAR     66  64  94 CALM      30.22R
$$

TNZ083-085-099-150300-
SOUTHEAST TENNESSEE

CITY           SKY/WX    TMP DP  RH WIND       PRES   REMARKS
CHATTANOOGA    PTCLDY    73  68  84 CALM      30.17R
$$

SKY/WX REPORTED AS FAIR MEANS FEW OR NO CLOUDS BELOW
12 THOUSAND FEET.



USA.gov is the U.S. government's official web portal to all federal, state and local government web resources and services.